Pagina principale
METAR-TAF:

METAR-TAF

Aeroporti :

Castrignano del Capo, Italia

Santa Maria di Leuca

latitudine: 39-49N, longitudine: 018-21E, altezza: 104 m

Osservazione

Il bollettino è stato emesso 35 minuti fa, alle 09:55 UTC
Vento 10 kt da nord-ovest
Temperature 20°C
Umidità 60%
Pressione 1016 hPa
Visibilità 10 km o più
Nubi sparse ad un'altezza di 2000 ft

METAR: LIBY 210955Z 32010KT 9999 SCT020 20/12 Q1016 RMK SCT QUK 3 QUL 1 NW VIS MAR 20 KM VIS MIN 9999

Ora: 12:30 (10:30 UTC)


TAF: mancante

Osservazioni e previsioni meteorologiche di più di 4000 aeroporti (messaggi METAR e TAF).

Le stazioni disponibili sono rappresentate dai dischi gialli e rossi sulla carta.

Puntare il mouse per vedere il nome della stazione.

Clicca sopra per visualizzare le osservazioni e previsioni meteorologiche.

Per cambiare la mappa : fare clic sui pulsanti verdi con una croce nera per ingrandire, il pulsante verde con un trattino per diminuire, o sulla freccia verde per le mappe adiacenti.


METAR-TAF: